Wind_Speed
11 9 8 7 8 9 10 9 7 7 7 7 9 9 9 8 6 6 4 3 3 4 4 6 7 7 8 8 9 10 10 11
11 11 9 10 9 10 10 10 9 9 10 10 11 12 13 13 12 11 10 10 9 10 11 11 11 10 11 13 12 14 14 15
14 12 12 11 11 12 12 11 11 11 12 12 14 15 16 17 18 18 17 17 16 16 17 18 18 17 18 16 16 18 18 18
14 14 13 13 13 14 14 14 13 14 14 13 15 17 19 19 22 23 22 22 21 21 21 21 23 22 21 19 18 18 20 20
11 13 15 14 15 14 15 16 15 14 15 15 16 16 18 19 23 24 25 25 25 25 25 25 27 27 23 20 20 21 19 20
12 12 14 14 14 15 14 15 18 17 15 15 17 19 19 19 18 21 24 25 26 26 25 25 25 23 23 24 22 21 21 23
13 13 13 14 15 14 14 14 17 18 17 16 17 18 19 20 20 21 21 22 23 23 23 23 25 23 27 23 25 24 25 26
14 13 14 15 16 16 16 14 16 17 18 19 20 20 19 19 21 22 22 22 22 23 24 25 25 22 26 26 29 28 28 29
15 16 16 16 18 19 18 18 17 18 18 20 23 24 22 21 21 22 22 21 21 24 26 25 24 24 26 27 28 28 29 30
20 19 19 18 17 18 21 23 19 20 21 20 24 25 25 23 24 24 23 21 22 25 26 26 25 25 27 29 29 29 29 29
17 18 22 22 19 18 17 21 25 24 24 24 25 26 26 26 25 24 24 24 26 28 26 26 27 28 28 28 29 30 30 31
16 16 20 23 21 19 18 18 22 26 27 27 28 27 27 27 26 26 25 26 26 26 26 26 28 28 28 28 28 29 32 33
18 17 16 21 21 19 20 20 22 24 25 27 29 30 28 28 29 28 27 28 26 26 25 27 29 30 31 31 30 31 32 34
22 20 22 21 26 25 24 22 26 28 26 27 30 32 32 31 32 31 30 29 28 27 27 28 29 30 31 32 31 32 35 37
29 24 24 26 28 31 28 26 27 29 31 30 30 32 34 32 33 33 35 33 29 30 30 31 30 29 30 31 32 32 35 36
29 29 30 28 28 31 28 30 29 29 32 34 32 33 35 35 34 34 36 39 36 34 33 31 32 30 29 31 31 32 35 36
38 36 34 30 27 29 30 30 31 31 32 36 36 33 34 35 36 36 38 39 40 39 37 34 32 32 32 32 32 33 38 39
43 44 41 35 30 32 34 34 34 34 35 38 40 37 35 37 39 38 39 40 41 40 40 40 36 36 36 37 37 38 41 42
49 47 48 41 34 32 34 35 37 38 40 42 41 41 39 39 41 38 41 42 43 41 41 42 41 39 37 37 41 44 46 46
52 52 50 44 38 34 34 37 41 40 39 43 43 42 40 41 40 39 42 44 44 45 46 44 42 40 38 39 42 46 46 48
Wind_Direction
321 320 329 325 301 285 284 285 290 287 279 267 267 253 241 247 246 247 246 241 266 290 305 305 306 313 320 314 299 305 309 313
317 318 310 307 296 284 281 277 278 279 275 265 258 255 251 252 253 256 260 269 280 288 292 293 298 302 302 293 295 301 308 306
310 307 307 299 295 287 281 280 267 264 268 269 262 255 250 252 256 258 264 271 275 279 287 292 295 298 303 298 289 287 290 297
301 296 295 295 295 294 289 281 276 264 262 267 271 269 263 256 255 257 260 265 271 276 282 288 292 294 299 297 288 287 288 293
288 284 285 287 288 290 292 289 282 277 269 266 268 271 274 269 263 262 263 266 270 274 279 283 287 293 295 285 284 284 288 292
296 280 276 280 281 283 289 292 288 282 277 266 264 269 272 273 268 265 266 268 270 274 277 284 287 287 284 284 280 281 286 291
317 298 279 274 275 275 281 286 287 286 281 274 269 268 269 271 268 264 264 264 267 271 277 276 279 282 286 285 286 288 286 287
323 314 299 282 272 271 270 274 280 284 283 277 273 272 272 272 274 275 273 273 275 274 273 271 276 280 285 285 285 287 284 284
325 324 322 304 284 278 274 269 270 276 278 278 276 273 273 274 272 274 274 274 277 273 268 275 277 280 279 281 281 280 279 283
320 319 321 317 305 296 290 282 269 268 272 273 275 276 276 274 272 274 276 276 271 267 270 276 278 279 276 275 277 279 281 281
304 303 303 308 306 306 304 299 289 272 267 269 272 278 277 273 270 270 270 269 268 272 276 276 274 273 274 277 278 280 282 283
285 285 284 289 295 298 306 305 300 294 284 278 277 278 279 276 272 270 268 267 270 275 278 274 275 276 276 275 277 279 281 284
263 273 274 285 281 288 303 304 300 298 295 286 279 280 280 276 271 269 270 270 271 272 274 277 278 279 280 280 282 282 285 289
276 273 276 283 283 283 296 298 304 297 292 288 280 276 276 275 276 277 273 269 272 273 276 279 280 280 282 285 287 290 291 295
284 277 267 284 279 276 292 296 296 293 291 288 283 274 272 274 277 280 278 276 277 279 278 281 279 280 283 286 291 295 297 300
272 277 278 282 277 269 285 288 291 286 285 289 290 283 276 272 272 274 275 276 278 276 276 278 281 278 279 284 291 297 299 301
269 268 272 274 272 274 282 284 283 279 279 283 286 287 283 278 269 267 269 272 274 276 276 277 280 284 285 289 293 301 304 304
264 270 270 269 265 264 275 283 283 278 275 277 280 282 284 280 276 269 269 271 271 273 277 276 278 281 286 292 293 297 304 302
260 263 266 266 260 261 269 275 278 285 283 279 279 284 284 284 276 270 267 268 270 273 275 277 279 283 288 292 295 296 302 303
258 262 263 263 257 260 265 263 274 281 279 277 276 275 279 280 278 272 269 269 270 272 274 278 281 285 284 284 294 290 298 299
Height
5869 5868 5868 5868 5867 5867 5866 5865 5865 5865 5865 5865 5866 5866 5866 5867 5867 5867 5867 5867 5867 5866 5866 5866 5866 5865 5865 5864 5863 5863 5862 5861
5868 5867 5867 5867 5866 5866 5865 5864 5864 5864 5864 5864 5864 5864 5865 5866 5866 5866 5866 5866 5866 5865 5865 5865 5864 5864 5863 5863 5862 5860 5860 5859
5867 5866 5867 5866 5866 5864 5864 5863 5862 5863 5863 5863 5863 5863 5863 5864 5864 5864 5865 5864 5864 5863 5863 5863 5862 5861 5860 5859 5858 5857 5856 5856
5865 5865 5865 5865 5865 5864 5863 5861 5861 5861 5861 5861 5861 5861 5861 5862 5861 5861 5861 5861 5861 5861 5861 5860 5859 5858 5857 5855 5854 5853 5852 5851
5862 5862 5862 5862 5862 5862 5861 5860 5859 5859 5859 5859 5858 5858 5858 5859 5858 5858 5858 5858 5858 5857 5857 5856 5854 5854 5852 5851 5850 5850 5848 5847
5858 5859 5858 5859 5859 5858 5858 5858 5857 5857 5856 5856 5855 5855 5855 5855 5855 5854 5854 5854 5853 5853 5852 5851 5850 5849 5848 5847 5845 5845 5845 5843
5856 5855 5855 5854 5854 5854 5854 5854 5854 5854 5854 5853 5852 5851 5851 5851 5851 5850 5850 5850 5848 5848 5848 5847 5845 5844 5844 5842 5841 5840 5839 5838
5855 5854 5851 5850 5850 5849 5850 5850 5850 5850 5850 5849 5848 5848 5848 5847 5846 5846 5846 5845 5844 5843 5842 5842 5841 5840 5839 5837 5836 5835 5834 5832
5853 5853 5851 5848 5846 5845 5845 5846 5845 5845 5845 5845 5844 5843 5843 5843 5842 5841 5841 5841 5839 5838 5837 5837 5836 5834 5833 5832 5831 5830 5828 5827
5849 5848 5848 5847 5844 5842 5841 5840 5841 5840 5839 5840 5839 5839 5838 5838 5838 5836 5835 5835 5834 5832 5831 5831 5830 5829 5827 5826 5825 5824 5822 5821
5847 5845 5843 5843 5842 5839 5837 5836 5835 5834 5833 5833 5832 5832 5833 5833 5833 5832 5831 5830 5828 5827 5827 5826 5824 5823 5822 5821 5818 5816 5814 5813
5845 5844 5843 5840 5838 5836 5834 5831 5830 5828 5828 5828 5827 5826 5826 5826 5826 5826 5826 5824 5823 5822 5821 5820 5818 5816 5815 5813 5811 5810 5808 5806
5843 5840 5838 5837 5835 5832 5831 5828 5826 5823 5822 5821 5820 5820 5820 5819 5819 5819 5818 5817 5817 5816 5815 5813 5811 5810 5808 5806 5806 5804 5802 5799
5834 5834 5831 5830 5830 5826 5825 5822 5822 5819 5816 5814 5813 5812 5812 5812 5812 5812 5811 5810 5809 5808 5808 5806 5804 5803 5801 5800 5799 5797 5794 5792
5823 5823 5825 5823 5823 5821 5818 5815 5814 5812 5810 5808 5806 5805 5804 5805 5805 5805 5804 5803 5801 5801 5800 5800 5798 5796 5795 5793 5791 5789 5786 5784
5814 5813 5814 5815 5814 5813 5811 5808 5806 5806 5803 5801 5799 5798 5797 5796 5797 5796 5796 5795 5794 5793 5792 5792 5792 5790 5787 5786 5784 5782 5780 5778
5805 5804 5806 5806 5804 5805 5804 5800 5799 5797 5796 5794 5791 5790 5788 5788 5788 5787 5787 5787 5787 5786 5785 5783 5782 5782 5780 5778 5776 5773 5770 5767
5792 5793 5793 5793 5795 5794 5795 5793 5790 5788 5786 5784 5781 5781 5779 5778 5779 5779 5778 5779 5778 5777 5776 5775 5773 5772 5771 5769 5766 5764 5761 5758
5781 5782 5783 5784 5784 5784 5785 5784 5780 5779 5777 5775 5773 5772 5771 5768 5767 5767 5768 5768 5768 5767 5765 5765 5763 5762 5760 5759 5756 5753 5751 5747
5769 5771 5773 5774 5775 5775 5774 5774 5772 5771 5767 5764 5764 5761 5761 5759 5758 5757 5757 5758 5757 5756 5754 5754 5753 5751 5750 5748 5745 5743 5740 5736